JH1CWL-13 Weather Reports


Display with metric or nautical units.
time (UTC)temp
F
wind
direction
speed
MPH
gust
MPH
rain 1hr
in
rain 24hr
in
rain mn
in
humidity
%
barometer
mb
20260502151524 55 0 0.0 0.0 0.00 0.00 0.00 82 1009.0
20260502123525 59 0 0.0 0.0 0.00 0.00 0.00 77 1009.0
20260502121524 60 0 0.0 0.0 0.00 0.00 0.00 76 1008.8
20260502115524 60 0 0.0 0.0 0.00 0.00 0.00 75 1008.5
20260502113525 60 358 0.0 2.0 0.00 0.00 0.00 74 1008.3
20260502111525 61 181 0.0 0.0 0.00 0.00 0.00 71 1007.9
20260502105526 62 1 0.0 0.0 0.00 0.00 0.00 70 1007.8
20260502103524 62 1 0.0 3.0 0.00 0.00 0.00 69 1007.4
20260502101524 63 1 0.0 2.0 0.00 0.00 0.00 66 1007.2
20260502091524 69 354 0.0 3.0 0.00 0.00 0.00 56 1006.7
20260502071524 78 298 1.0 4.0 0.00 0.00 0.00 32 1005.1
20260502065524 80 335 1.0 3.0 0.00 0.00 0.00 32 1004.7
20260502063524 80 333 1.0 4.0 0.00 0.00 0.00 29 1004.6
20260502061524 79 270 3.0 7.0 0.00 0.00 0.00 28 1004.3
20260502055525 79 247 3.0 6.0 0.00 0.00 0.00 31 1004.4
20260502053524 80 276 3.0 7.0 0.00 0.00 0.00 33 1004.1
20260502051524 79 259 1.0 7.0 0.00 0.00 0.00 36 1004.2
20260502045524 78 260 3.0 6.0 0.00 0.00 0.00 33 1004.1
20260502043525 77 266 1.0 8.0 0.00 0.00 0.00 41 1004.0
20260502041525 75 253 3.0 8.0 0.00 0.00 0.00 46 1003.8
20260502035524 75 248 5.0 9.0 0.00 0.00 0.00 44 1003.8
20260502033525 74 253 4.0 10.0 0.00 0.01 0.00 44 1004.0
20260502031526 75 243 6.0 12.0 0.00 0.02 0.00 45 1003.7
20260502025525 75 229 3.0 7.0 0.00 0.03 0.00 46 1003.4
20260502023525 74 263 3.0 9.0 0.00 0.12 0.00 52 1003.3
20260502021525 76 253 3.0 9.0 0.00 0.21 0.00 41 1002.9
20260502015526 76 250 3.0 7.0 0.00 0.25 0.00 37 1002.7
20260502013525 75 261 0.0 4.0 0.00 0.27 0.00 42 1002.2
20260502011524 74 260 1.0 6.0 0.00 0.28 0.00 46 1002.2
20260502005526 72 231 2.0 9.0 0.00 0.31 0.00 49 1002.2
20260502003523 71 240 4.0 8.0 0.00 0.33 0.00 52 1002.0
20260502001524 70 269 2.0 6.0 0.00 0.33 0.00 54 1001.8
20260501235524 70 270 0.0 6.0 0.00 0.33 0.00 57 1001.7